| time (UTC) | temp F | wind direction | speed MPH | gust MPH | rain 1hr in | rain 24hr in | rain mn in | humidity % | barometer mb |
| 20260505153319 | 74 | 170 | 4.0 | 8.0 | 0.00 | 0.00 | 0.00 | 50 | 1011.3 |
| 20260505152816 | 74 | 194 | 8.0 | 13.0 | 0.00 | 0.00 | 0.00 | 49 | 1011.5 |
| 20260505152313 | 74 | 164 | 4.0 | 9.0 | 0.00 | 0.00 | 0.00 | 52 | 1011.6 |
| 20260505151808 | 74 | 174 | 11.0 | 13.0 | 0.00 | 0.00 | 0.00 | 50 | 1011.3 |
| 20260505151305 | 73 | 231 | 3.0 | 9.0 | 0.00 | 0.00 | 0.00 | 52 | 1011.3 |
| 20260505150801 | 73 | 233 | 4.0 | 8.0 | 0.00 | 0.00 | 0.00 | 52 | 1011.3 |
| 20260505150259 | 72 | 164 | 7.0 | 9.0 | 0.00 | 0.00 | 0.00 | 50 | 1011.4 |
| 20260505140223 | 71 | 222 | 3.0 | 6.0 | 0.00 | 0.00 | 0.00 | 53 | 1011.2 |
| 20260505130147 | 68 | 224 | 2.0 | 4.0 | 0.00 | 0.00 | 0.00 | 57 | 1010.9 |
| 20260505124637 | 67 | 183 | 0.0 | 3.0 | 0.00 | 0.00 | 0.00 | 58 | 1010.8 |
| 20260505124133 | 67 | 163 | 4.0 | 6.0 | 0.00 | 0.00 | 0.00 | 58 | 1010.7 |
| 20260505123629 | 67 | 205 | 4.0 | 7.0 | 0.00 | 0.00 | 0.00 | 58 | 1010.6 |
| 20260505123126 | 67 | 110 | 4.0 | 9.0 | 0.00 | 0.00 | 0.00 | 59 | 1010.6 |
| 20260505122622 | 67 | 222 | 2.0 | 7.0 | 0.00 | 0.00 | 0.00 | 60 | 1010.3 |
| 20260505122120 | 67 | 158 | 2.0 | 7.0 | 0.00 | 0.00 | 0.00 | 60 | 1010.4 |
| 20260505121616 | 67 | 180 | 2.0 | 7.0 | 0.00 | 0.00 | 0.00 | 59 | 1010.3 |
| 20260505121113 | 67 | 152 | 1.0 | 4.0 | 0.00 | 0.00 | 0.00 | 62 | 1010.4 |
| 20260505120609 | 67 | 198 | 0.0 | 2.0 | 0.00 | 0.00 | 0.00 | 62 | 1010.3 |
| 20260505120105 | 66 | 67 | 1.0 | 2.0 | 0.00 | 0.00 | 0.00 | 62 | 1010.2 |
| 20260505115600 | 65 | 101 | 0.0 | 2.0 | 0.00 | 0.00 | 0.00 | 63 | 1010.1 |
| 20260505115058 | 66 | 78 | 2.0 | 2.0 | 0.00 | 0.00 | 0.00 | 61 | 1009.9 |
| 20260505114554 | 66 | 142 | 4.0 | 4.0 | 0.00 | 0.00 | 0.00 | 61 | 1009.8 |
| 20260505114050 | 65 | 130 | 1.0 | 6.0 | 0.00 | 0.00 | 0.00 | 61 | 1009.9 |
| 20260505113547 | 65 | 92 | 3.0 | 6.0 | 0.00 | 0.00 | 0.00 | 62 | 1009.7 |
| 20260505113043 | 65 | 188 | 2.0 | 4.0 | 0.00 | 0.00 | 0.00 | 63 | 1009.7 |
| 20260505112540 | 65 | 124 | 2.0 | 3.0 | 0.00 | 0.00 | 0.00 | 62 | 1009.7 |
| 20260505112039 | 65 | 135 | 3.0 | 3.0 | 0.00 | 0.00 | 0.00 | 62 | 1009.5 |
| 20260505111537 | 65 | 132 | 2.0 | 3.0 | 0.00 | 0.00 | 0.00 | 63 | 1009.7 |
| 20260505111034 | 65 | 125 | 2.0 | 4.0 | 0.00 | 0.00 | 0.00 | 61 | 1009.8 |
| 20260505110531 | 65 | 108 | 2.0 | 4.0 | 0.00 | 0.00 | 0.00 | 61 | 1009.7 |
| 20260505102004 | 65 | 204 | 2.0 | 4.0 | 0.00 | 0.00 | 0.00 | 60 | 1009.4 |
| 20260505101501 | 65 | 125 | 3.0 | 8.0 | 0.00 | 0.00 | 0.00 | 60 | 1009.4 |
| 20260505100957 | 65 | 100 | 2.0 | 4.0 | 0.00 | 0.00 | 0.00 | 61 | 1009.2 |
| 20260505100455 | 65 | 96 | 3.0 | 4.0 | 0.00 | 0.00 | 0.00 | 61 | 1009.1 |
| 20260505095951 | 65 | 102 | 3.0 | 3.0 | 0.00 | 0.00 | 0.00 | 62 | 1009.1 |
| 20260505095447 | 65 | 254 | 3.0 | 4.0 | 0.00 | 0.00 | 0.00 | 62 | 1009.1 |
| 20260505094943 | 65 | 76 | 1.0 | 4.0 | 0.00 | 0.00 | 0.00 | 61 | 1009.1 |
| 20260505094440 | 65 | 113 | 1.0 | 3.0 | 0.00 | 0.00 | 0.00 | 61 | 1009.1 |
| 20260505093937 | 65 | 75 | 2.0 | 4.0 | 0.00 | 0.00 | 0.00 | 61 | 1008.8 |
| 20260505093434 | 66 | 85 | 1.0 | 2.0 | 0.00 | 0.00 | 0.00 | 61 | 1008.8 |
| 20260505092931 | 65 | 98 | 2.0 | 7.0 | 0.00 | 0.00 | 0.00 | 61 | 1008.7 |
| 20260505092429 | 65 | 81 | 2.0 | 6.0 | 0.00 | 0.00 | 0.00 | 62 | 1008.6 |
| 20260505091926 | 65 | 102 | 1.0 | 3.0 | 0.00 | 0.00 | 0.00 | 62 | 1008.7 |
| 20260505091424 | 65 | 114 | 0.0 | 2.0 | 0.00 | 0.00 | 0.00 | 62 | 1008.6 |
| 20260505090922 | 65 | 69 | 2.0 | 4.0 | 0.00 | 0.00 | 0.00 | 60 | 1008.8 |
| 20260505090420 | 65 | 147 | 2.0 | 3.0 | 0.00 | 0.00 | 0.00 | 60 | 1008.5 |
| 20260505085917 | 65 | 72 | 3.0 | 6.0 | 0.00 | 0.00 | 0.00 | 60 | 1008.4 |
| 20260505085415 | 65 | 105 | 2.0 | 6.0 | 0.00 | 0.00 | 0.00 | 61 | 1008.4 |
| 20260505084912 | 65 | 108 | 1.0 | 3.0 | 0.00 | 0.00 | 0.00 | 61 | 1008.5 |
| 20260505084411 | 66 | 162 | 1.0 | 3.0 | 0.00 | 0.00 | 0.00 | 61 | 1008.4 |
| 20260505083909 | 66 | 81 | 1.0 | 4.0 | 0.00 | 0.00 | 0.00 | 60 | 1008.4 |
| 20260505083406 | 66 | 79 | 3.0 | 3.0 | 0.00 | 0.00 | 0.00 | 61 | 1008.3 |
| 20260505082902 | 66 | 157 | 3.0 | 3.0 | 0.00 | 0.00 | 0.00 | 61 | 1008.3 |
| 20260505082357 | 66 | 178 | 3.0 | 3.0 | 0.00 | 0.00 | 0.00 | 61 | 1008.5 |
| 20260505081854 | 66 | 171 | 2.0 | 3.0 | 0.00 | 0.00 | 0.00 | 60 | 1008.5 |
| 20260505081350 | 67 | 145 | 2.0 | 4.0 | 0.00 | 0.00 | 0.00 | 59 | 1008.3 |
| 20260505080847 | 67 | 112 | 2.0 | 4.0 | 0.00 | 0.00 | 0.00 | 60 | 1008.2 |
| 20260505080343 | 67 | 100 | 3.0 | 6.0 | 0.00 | 0.00 | 0.00 | 60 | 1008.3 |
| 20260505075839 | 67 | 113 | 1.0 | 3.0 | 0.00 | 0.00 | 0.00 | 61 | 1008.2 |
| 20260505075336 | 66 | 229 | 3.0 | 4.0 | 0.00 | 0.00 | 0.00 | 60 | 1008.3 |
| 20260505074833 | 66 | 178 | 4.0 | 8.0 | 0.00 | 0.00 | 0.00 | 60 | 1008.2 |
| 20260505074330 | 66 | 101 | 1.0 | 2.0 | 0.00 | 0.00 | 0.00 | 62 | 1008.3 |
| 20260505073828 | 66 | 154 | 1.0 | 4.0 | 0.00 | 0.00 | 0.00 | 60 | 1008.2 |
| 20260505073326 | 66 | 90 | 0.0 | 6.0 | 0.00 | 0.00 | 0.00 | 60 | 1008.1 |
| 20260505072822 | 67 | 167 | 1.0 | 3.0 | 0.00 | 0.00 | 0.00 | 59 | 1008.1 |
| 20260505072319 | 67 | 146 | 4.0 | 7.0 | 0.00 | 0.00 | 0.00 | 59 | 1008.0 |
| 20260505071815 | 67 | 249 | 1.0 | 4.0 | 0.00 | 0.00 | 0.00 | 59 | 1008.1 |
| 20260505071312 | 67 | 233 | 2.0 | 7.0 | 0.00 | 0.00 | 0.00 | 59 | 1008.0 |
| 20260505070810 | 67 | 92 | 6.0 | 7.0 | 0.00 | 0.00 | 0.00 | 59 | 1008.0 |
| 20260505070306 | 67 | 122 | 1.0 | 3.0 | 0.00 | 0.00 | 0.00 | 60 | 1008.0 |
| 20260505065801 | 67 | 347 | 0.0 | 3.0 | 0.00 | 0.00 | 0.00 | 58 | 1008.1 |
| 20260505065258 | 67 | 124 | 1.0 | 3.0 | 0.00 | 0.00 | 0.00 | 60 | 1008.0 |
| 20260505064755 | 67 | 184 | 2.0 | 7.0 | 0.00 | 0.00 | 0.00 | 59 | 1008.2 |
| 20260505064252 | 67 | 88 | 1.0 | 3.0 | 0.00 | 0.00 | 0.00 | 59 | 1008.2 |
| 20260505063750 | 67 | 112 | 2.0 | 3.0 | 0.00 | 0.00 | 0.00 | 59 | 1008.1 |
| 20260505063246 | 67 | 123 | 3.0 | 3.0 | 0.00 | 0.00 | 0.00 | 58 | 1008.2 |
| 20260505062743 | 67 | 179 | 2.0 | 4.0 | 0.00 | 0.00 | 0.00 | 60 | 1008.4 |
| 20260505062240 | 66 | 176 | 2.0 | 4.0 | 0.00 | 0.00 | 0.00 | 58 | 1008.2 |
| 20260505061737 | 66 | 120 | 1.0 | 3.0 | 0.00 | 0.00 | 0.00 | 61 | 1008.4 |
| 20260505061235 | 66 | 112 | 1.0 | 3.0 | 0.00 | 0.00 | 0.00 | 59 | 1008.4 |
| 20260505060732 | 66 | 147 | 2.0 | 3.0 | 0.00 | 0.00 | 0.00 | 58 | 1008.3 |
| 20260505060229 | 66 | 164 | 2.0 | 4.0 | 0.00 | 0.00 | 0.00 | 58 | 1008.4 |
| 20260505055723 | 66 | 139 | 4.0 | 6.0 | 0.00 | 0.00 | 0.00 | 60 | 1008.4 |
| 20260505055220 | 66 | 128 | 1.0 | 4.0 | 0.00 | 0.00 | 0.00 | 60 | 1008.3 |
| 20260505054718 | 66 | 141 | 3.0 | 4.0 | 0.00 | 0.00 | 0.00 | 60 | 1008.4 |
| 20260505054216 | 66 | 89 | 2.0 | 3.0 | 0.00 | 0.00 | 0.00 | 60 | 1008.4 |
| 20260505053714 | 66 | 117 | 3.0 | 4.0 | 0.00 | 0.00 | 0.00 | 59 | 1008.2 |
| 20260505053209 | 65 | 111 | 3.0 | 4.0 | 0.00 | 0.00 | 0.00 | 60 | 1008.3 |
| 20260505052707 | 65 | 108 | 1.0 | 4.0 | 0.00 | 0.00 | 0.00 | 63 | 1008.4 |
| 20260505052204 | 65 | 118 | 2.0 | 3.0 | 0.00 | 0.00 | 0.00 | 62 | 1008.4 |
| 20260505051701 | 65 | 121 | 2.0 | 3.0 | 0.00 | 0.00 | 0.00 | 63 | 1008.3 |
| 20260505051159 | 64 | 84 | 2.0 | 3.0 | 0.00 | 0.00 | 0.00 | 64 | 1008.3 |
| 20260505050657 | 64 | 84 | 2.0 | 3.0 | 0.00 | 0.00 | 0.00 | 65 | 1008.4 |
| 20260505050156 | 64 | 84 | 2.0 | 3.0 | 0.00 | 0.00 | 0.00 | 67 | 1008.4 |
| 20260505041630 | 64 | 87 | 2.0 | 2.0 | 0.00 | 0.00 | 0.00 | 72 | 1008.0 |
| 20260505041128 | 64 | 87 | 1.0 | 2.0 | 0.00 | 0.00 | 0.00 | 72 | 1007.9 |
| 20260505040624 | 64 | 87 | 1.0 | 2.0 | 0.00 | 0.00 | 0.00 | 70 | 1007.8 |
| 20260505040122 | 63 | 89 | 1.0 | 2.0 | 0.00 | 0.00 | 0.00 | 69 | 1007.8 |
| 20260505035618 | 63 | 89 | 1.0 | 2.0 | 0.00 | 0.00 | 0.00 | 69 | 1007.8 |
| 20260505035114 | 64 | 91 | 2.0 | 2.0 | 0.00 | 0.00 | 0.00 | 67 | 1007.9 |
| 20260505034611 | 65 | 90 | 2.0 | 2.0 | 0.00 | 0.00 | 0.00 | 66 | 1007.7 |
| 20260505034108 | 65 | 93 | 2.0 | 3.0 | 0.00 | 0.00 | 0.00 | 66 | 1007.8 |
| 20260505033605 | 65 | 97 | 2.0 | 3.0 | 0.00 | 0.00 | 0.00 | 68 | 1007.6 |
| 20260505033103 | 64 | 99 | 2.0 | 3.0 | 0.00 | 0.00 | 0.00 | 69 | 1007.7 |
| 20260505032601 | 64 | 98 | 2.0 | 3.0 | 0.00 | 0.00 | 0.00 | 69 | 1007.6 |
| 20260505032057 | 63 | 97 | 2.0 | 2.0 | 0.00 | 0.00 | 0.00 | 72 | 1007.6 |
| 20260505031554 | 63 | 101 | 2.0 | 2.0 | 0.00 | 0.00 | 0.00 | 72 | 1007.5 |
| 20260505031050 | 61 | 104 | 2.0 | 3.0 | 0.00 | 0.00 | 0.00 | 76 | 1007.4 |
| 20260505030548 | 59 | 95 | 1.0 | 1.0 | 0.00 | 0.00 | 0.00 | 86 | 1007.5 |
| 20260505030043 | 59 | 95 | 1.0 | 2.0 | 0.00 | 0.00 | 0.00 | 85 | 1007.6 |
| 20260505025539 | 60 | 95 | 1.0 | 1.0 | 0.00 | 0.00 | 0.00 | 86 | 1007.6 |
| 20260505025039 | 60 | 95 | 1.0 | 1.0 | 0.00 | 0.00 | 0.00 | 84 | 1007.6 |
| 20260505024535 | 61 | 95 | 0.0 | 1.0 | 0.00 | 0.00 | 0.00 | 83 | 1007.5 |
| 20260505024032 | 62 | 95 | 1.0 | 1.0 | 0.00 | 0.00 | 0.00 | 79 | 1007.5 |
| 20260505023529 | 63 | 95 | 1.0 | 2.0 | 0.00 | 0.00 | 0.00 | 74 | 1007.5 |
| 20260505023027 | 64 | 95 | 0.0 | 2.0 | 0.00 | 0.00 | 0.00 | 71 | 1007.6 |
| 20260505022524 | 63 | 96 | 2.0 | 3.0 | 0.00 | 0.00 | 0.00 | 73 | 1007.4 |
| 20260505022021 | 63 | 93 | 2.0 | 2.0 | 0.00 | 0.00 | 0.00 | 77 | 1007.5 |
| 20260505021518 | 64 | 93 | 0.0 | 2.0 | 0.00 | 0.00 | 0.00 | 74 | 1007.3 |
| 20260505021014 | 63 | 93 | 2.0 | 2.0 | 0.00 | 0.00 | 0.00 | 74 | 1007.5 |
| 20260505020514 | 64 | 93 | 2.0 | 2.0 | 0.00 | 0.00 | 0.00 | 72 | 1007.4 |
| 20260505020012 | 65 | 96 | 2.0 | 2.0 | 0.00 | 0.00 | 0.00 | 72 | 1007.4 |
| 20260505015509 | 64 | 98 | 2.0 | 2.0 | 0.00 | 0.00 | 0.00 | 71 | 1007.6 |
| 20260505015006 | 63 | 100 | 1.0 | 2.0 | 0.00 | 0.00 | 0.00 | 73 | 1007.4 |
| 20260505014503 | 62 | 101 | 1.0 | 1.0 | 0.00 | 0.00 | 0.00 | 79 | 1007.3 |
| 20260505014000 | 61 | 119 | 0.0 | 1.0 | 0.00 | 0.00 | 0.00 | 81 | 1007.3 |
| 20260505013457 | 61 | 98 | 1.0 | 2.0 | 0.00 | 0.00 | 0.00 | 82 | 1007.4 |
| 20260505012954 | 62 | 97 | 0.0 | 0.0 | 0.00 | 0.00 | 0.00 | 81 | 1007.2 |
| 20260505012452 | 63 | 97 | 0.0 | 1.0 | 0.00 | 0.00 | 0.00 | 76 | 1007.3 |
| 20260505011949 | 64 | 97 | 0.0 | 0.0 | 0.00 | 0.00 | 0.00 | 73 | 1007.2 |
| 20260505011444 | 65 | 95 | 1.0 | 2.0 | 0.00 | 0.00 | 0.00 | 71 | 1007.2 |
| 20260505010941 | 64 | 94 | 0.0 | 1.0 | 0.00 | 0.00 | 0.00 | 74 | 1007.1 |
| 20260505010437 | 63 | 94 | 1.0 | 1.0 | 0.00 | 0.00 | 0.00 | 76 | 1007.2 |
| 20260505005933 | 63 | 94 | 1.0 | 1.0 | 0.00 | 0.00 | 0.00 | 79 | 1007.2 |
| 20260505005430 | 64 | 94 | 0.0 | 0.0 | 0.00 | 0.00 | 0.00 | 76 | 1007.2 |
| 20260505004928 | 63 | 94 | 1.0 | 1.0 | 0.00 | 0.00 | 0.00 | 75 | 1007.1 |
| 20260505004424 | 64 | 94 | 0.0 | 1.0 | 0.00 | 0.00 | 0.00 | 77 | 1007.2 |
| 20260505003921 | 64 | 94 | 0.0 | 0.0 | 0.00 | 0.00 | 0.00 | 78 | 1007.2 |
| 20260505003419 | 65 | 94 | 0.0 | 0.0 | 0.00 | 0.00 | 0.00 | 75 | 1007.1 |
| 20260505002915 | 66 | 94 | 1.0 | 1.0 | 0.00 | 0.00 | 0.00 | 69 | 1007.3 |
| 20260505002411 | 67 | 94 | 0.0 | 1.0 | 0.00 | 0.00 | 0.00 | 70 | 1007.1 |
| 20260505001910 | 67 | 94 | 2.0 | 2.0 | 0.00 | 0.00 | 0.00 | 67 | 1007.2 |
| 20260505001407 | 69 | 95 | 1.0 | 2.0 | 0.00 | 0.00 | 0.00 | 64 | 1007.3 |
| 20260505000904 | 69 | 95 | 1.0 | 2.0 | 0.00 | 0.00 | 0.00 | 63 | 1007.3 |
| 20260505000402 | 70 | 95 | 2.0 | 2.0 | 0.00 | 0.00 | 0.00 | 62 | 1007.5 |
| 20260504235858 | 70 | 91 | 2.0 | 2.0 | 0.00 | 0.00 | 0.00 | 60 | 1007.4 |
| 20260504235355 | 71 | 99 | 2.0 | 2.0 | 0.00 | 0.00 | 0.00 | 59 | 1007.4 |
| 20260504234851 | 71 | 106 | 2.0 | 2.0 | 0.00 | 0.00 | 0.00 | 59 | 1007.6 |
| 20260504234349 | 72 | 103 | 2.0 | 2.0 | 0.00 | 0.00 | 0.00 | 58 | 1007.8 |
| 20260504233846 | 72 | 114 | 1.0 | 2.0 | 0.00 | 0.00 | 0.00 | 58 | 1007.5 |
| 20260504233341 | 72 | 105 | 1.0 | 2.0 | 0.00 | 0.00 | 0.00 | 56 | 1007.7 |
| 20260504232838 | 73 | 108 | 0.0 | 2.0 | 0.00 | 0.00 | 0.00 | 56 | 1007.6 |
| 20260504232335 | 73 | 102 | 2.0 | 2.0 | 0.00 | 0.00 | 0.00 | 55 | 1007.5 |
| 20260504231832 | 73 | 103 | 2.0 | 3.0 | 0.00 | 0.00 | 0.00 | 56 | 1007.6 |
| 20260504231329 | 73 | 105 | 1.0 | 2.0 | 0.00 | 0.00 | 0.00 | 57 | 1007.6 |
| 20260504230825 | 73 | 120 | 1.0 | 3.0 | 0.00 | 0.00 | 0.00 | 55 | 1007.9 |
| 20260504230323 | 73 | 149 | 1.0 | 3.0 | 0.00 | 0.00 | 0.00 | 55 | 1008.0 |
| 20260504225821 | 73 | 208 | 2.0 | 3.0 | 0.00 | 0.00 | 0.00 | 55 | 1008.0 |
| 20260504225317 | 73 | 189 | 1.0 | 2.0 | 0.00 | 0.00 | 0.00 | 54 | 1008.1 |
| 20260504224815 | 73 | 118 | 1.0 | 2.0 | 0.00 | 0.00 | 0.00 | 55 | 1008.4 |
| 20260504224312 | 74 | 111 | 1.0 | 2.0 | 0.00 | 0.00 | 0.00 | 53 | 1008.5 |
| 20260504223808 | 75 | 158 | 1.0 | 2.0 | 0.00 | 0.00 | 0.00 | 49 | 1008.7 |
| 20260504223304 | 75 | 96 | 1.0 | 1.0 | 0.00 | 0.00 | 0.00 | 51 | 1008.6 |
| 20260504222801 | 76 | 265 | 0.0 | 0.0 | 0.00 | 0.00 | 0.00 | 50 | 1008.7 |
| 20260504222257 | 76 | 221 | 1.0 | 3.0 | 0.00 | 0.00 | 0.00 | 48 | 1008.7 |
| 20260504221755 | 75 | 239 | 0.0 | 2.0 | 0.00 | 0.00 | 0.00 | 49 | 1008.8 |
| 20260504221252 | 75 | 139 | 4.0 | 6.0 | 0.00 | 0.00 | 0.00 | 50 | 1008.8 |
| 20260504220749 | 74 | 137 | 1.0 | 3.0 | 0.00 | 0.00 | 0.00 | 51 | 1008.9 |
| 20260504220246 | 75 | 225 | 1.0 | 3.0 | 0.00 | 0.00 | 0.00 | 51 | 1009.0 |
| 20260504215743 | 74 | 257 | 3.0 | 4.0 | 0.00 | 0.00 | 0.00 | 49 | 1008.8 |
| 20260504215240 | 73 | 226 | 0.0 | 4.0 | 0.00 | 0.00 | 0.00 | 53 | 1009.0 |
| 20260504214735 | 73 | 116 | 2.0 | 4.0 | 0.00 | 0.00 | 0.00 | 52 | 1009.0 |
| 20260504214232 | 73 | 257 | 3.0 | 8.0 | 0.00 | 0.00 | 0.00 | 51 | 1009.0 |
| 20260504213729 | 73 | 9 | 3.0 | 4.0 | 0.00 | 0.00 | 0.00 | 53 | 1009.2 |
| 20260504213225 | 73 | 201 | 2.0 | 7.0 | 0.00 | 0.00 | 0.00 | 52 | 1009.2 |
| 20260504212722 | 74 | 218 | 5.0 | 7.0 | 0.00 | 0.00 | 0.00 | 50 | 1009.3 |
| 20260504212219 | 73 | 116 | 1.0 | 6.0 | 0.00 | 0.00 | 0.00 | 53 | 1009.3 |
| 20260504211717 | 72 | 244 | 2.0 | 4.0 | 0.00 | 0.00 | 0.00 | 54 | 1009.3 |
| 20260504211213 | 73 | 241 | 0.0 | 6.0 | 0.00 | 0.00 | 0.00 | 53 | 1009.2 |
| 20260504210710 | 73 | 291 | 1.0 | 2.0 | 0.00 | 0.00 | 0.00 | 54 | 1009.3 |
| 20260504210207 | 72 | 237 | 3.0 | 6.0 | 0.00 | 0.00 | 0.00 | 56 | 1009.2 |
| 20260504205704 | 72 | 253 | 2.0 | 7.0 | 0.00 | 0.00 | 0.00 | 55 | 1009.1 |
| 20260504205201 | 71 | 323 | 1.0 | 2.0 | 0.00 | 0.00 | 0.00 | 59 | 1009.2 |
| 20260504204700 | 70 | 257 | 1.0 | 4.0 | 0.00 | 0.00 | 0.00 | 55 | 1009.1 |
| 20260504204159 | 70 | 351 | 2.0 | 3.0 | 0.00 | 0.00 | 0.00 | 56 | 1009.2 |
| 20260504203657 | 70 | 311 | 0.0 | 1.0 | 0.00 | 0.00 | 0.00 | 60 | 1009.3 |
| 20260504203154 | 70 | 260 | 0.0 | 1.0 | 0.00 | 0.00 | 0.00 | 58 | 1009.1 |
| 20260504202654 | 71 | 309 | 4.0 | 6.0 | 0.00 | 0.00 | 0.00 | 56 | 1009.2 |
| 20260504202151 | 72 | 256 | 2.0 | 3.0 | 0.00 | 0.00 | 0.00 | 52 | 1009.1 |
| 20260504201648 | 72 | 265 | 4.0 | 6.0 | 0.00 | 0.00 | 0.00 | 53 | 1008.6 |
| 20260504201146 | 72 | 170 | 3.0 | 7.0 | 0.00 | 0.00 | 0.00 | 50 | 1008.8 |
| 20260504200643 | 72 | 292 | 3.0 | 11.0 | 0.00 | 0.00 | 0.00 | 50 | 1009.0 |
| 20260504200140 | 72 | 223 | 4.0 | 10.0 | 0.00 | 0.00 | 0.00 | 51 | 1008.9 |
| 20260504195635 | 72 | 193 | 4.0 | 9.0 | 0.00 | 0.00 | 0.00 | 51 | 1008.8 |
| 20260504195132 | 74 | 137 | 6.0 | 10.0 | 0.00 | 0.00 | 0.00 | 49 | 1008.7 |
| 20260504194629 | 73 | 276 | 1.0 | 2.0 | 0.00 | 0.00 | 0.00 | 52 | 1008.9 |
| 20260504194125 | 73 | 116 | 4.0 | 8.0 | 0.00 | 0.00 | 0.00 | 49 | 1009.1 |
| 20260504193621 | 73 | 171 | 7.0 | 10.0 | 0.00 | 0.00 | 0.00 | 48 | 1009.1 |
| 20260504193120 | 73 | 245 | 2.0 | 9.0 | 0.00 | 0.00 | 0.00 | 49 | 1009.3 |
| 20260504192617 | 73 | 242 | 6.0 | 8.0 | 0.00 | 0.00 | 0.00 | 48 | 1009.4 |
| 20260504192115 | 73 | 160 | 1.0 | 6.0 | 0.00 | 0.00 | 0.00 | 48 | 1009.2 |
| 20260504191614 | 72 | 256 | 3.0 | 7.0 | 0.00 | 0.00 | 0.00 | 50 | 1009.3 |
| 20260504191109 | 73 | 188 | 3.0 | 7.0 | 0.00 | 0.00 | 0.00 | 52 | 1009.4 |
| 20260504190605 | 72 | 205 | 2.0 | 9.0 | 0.00 | 0.00 | 0.00 | 50 | 1009.5 |
| 20260504185559 | 73 | 233 | 4.0 | 9.0 | 0.00 | 0.00 | 0.00 | 50 | 1009.7 |
| 20260504185055 | 73 | 181 | 2.0 | 7.0 | 0.00 | 0.00 | 0.00 | 50 | 1009.5 |
| 20260504184551 | 73 | 200 | 4.0 | 6.0 | 0.00 | 0.00 | 0.00 | 50 | 1009.6 |
| 20260504184046 | 72 | 137 | 1.0 | 4.0 | 0.00 | 0.00 | 0.00 | 53 | 1009.6 |
| 20260504183543 | 72 | 212 | 3.0 | 4.0 | 0.00 | 0.00 | 0.00 | 51 | 1009.8 |
| 20260504183042 | 71 | 272 | 4.0 | 9.0 | 0.00 | 0.00 | 0.00 | 51 | 1009.9 |
| 20260504182538 | 71 | 99 | 4.0 | 4.0 | 0.00 | 0.00 | 0.00 | 53 | 1009.8 |
| 20260504182036 | 71 | 97 | 2.0 | 4.0 | 0.00 | 0.00 | 0.00 | 54 | 1009.8 |
| 20260504181532 | 71 | 87 | 3.0 | 6.0 | 0.00 | 0.00 | 0.00 | 52 | 1010.1 |
| 20260504181031 | 70 | 240 | 4.0 | 7.0 | 0.00 | 0.00 | 0.00 | 53 | 1010.2 |
| 20260504180529 | 70 | 197 | 2.0 | 6.0 | 0.00 | 0.00 | 0.00 | 55 | 1010.1 |
| 20260504180028 | 70 | 156 | 4.0 | 7.0 | 0.00 | 0.00 | 0.00 | 54 | 1009.8 |
| 20260504175525 | 71 | 170 | 4.0 | 7.0 | 0.00 | 0.00 | 0.00 | 52 | 1009.9 |
| 20260504175022 | 71 | 222 | 2.0 | 6.0 | 0.00 | 0.00 | 0.00 | 53 | 1009.9 |
| 20260504174520 | 69 | 216 | 3.0 | 6.0 | 0.00 | 0.00 | 0.00 | 57 | 1009.8 |
| 20260504174016 | 70 | 230 | 5.0 | 8.0 | 0.00 | 0.00 | 0.00 | 55 | 1010.1 |
| 20260504173513 | 70 | 59 | 3.0 | 10.0 | 0.00 | 0.00 | 0.00 | 56 | 1009.9 |
| 20260504173011 | 70 | 233 | 4.0 | 6.0 | 0.00 | 0.00 | 0.00 | 56 | 1010.0 |
| 20260504172507 | 70 | 273 | 5.0 | 10.0 | 0.00 | 0.00 | 0.00 | 55 | 1010.1 |
| 20260504172003 | 69 | 248 | 4.0 | 10.0 | 0.00 | 0.00 | 0.00 | 58 | 1010.1 |
| 20260504171500 | 69 | 222 | 6.0 | 9.0 | 0.00 | 0.00 | 0.00 | 56 | 1010.4 |
| 20260504170957 | 69 | 115 | 2.0 | 8.0 | 0.00 | 0.00 | 0.00 | 57 | 1010.6 |
| 20260504170453 | 68 | 201 | 8.0 | 9.0 | 0.00 | 0.00 | 0.00 | 57 | 1010.6 |
| 20260504160413 | 66 | 177 | 1.0 | 9.0 | 0.00 | 0.00 | 0.00 | 60 | 1011.9 |